Weather History for Victoria, BC

Change the Weather History Date:

Monday, August 19, 2013

  Actual Average Record
Temperature  
Mean Temperature 62 °F -  
Max Temperature 72 °F 68 °F 78 °F (2004)
Min Temperature 51 °F 48 °F 51 °F (1997)
Degree Days  
Heating Degree Days 4    
Growing Degree Days 12 (Base 50)    
Moisture  
Dew Point 53 °F    
Average Humidity 74    
Maximum Humidity 88    
Minimum Humidity 50    
Precipitation  
Precipitation 0.00 in 0.04 in - ()
Sea Level Pressure  
Sea Level Pressure 30.09 in    
Wind  
Wind Speed 3 mph ()    
Max Wind Speed 12 mph    
Max Gust Speed -    
Visibility 19.9 miles    
Events Rain    
Averages and records for this station are not official NWS values.
T = Trace of Precipitation, MM = Missing Value Source: Averaged Metar Reports

Daily Weather History Graph

Daily Weather History Graph

Search for Another Location

Airport:

Trip Planner

Search our weather history database for the weather conditions in past years. The results will help you decide how hot, cold, wet, or windy it might be!

Date:

Astronomy

Aug. 19, 2013 Rise Set
Actual Time 6:13 AM PDT 8:20 PM PDT
Civil Twilight 5:38 AM PDT 8:54 PM PDT
Nautical Twilight 4:56 AM PDT 9:36 PM PDT
Astronomical Twilight 4:08 AM PDT 10:24 PM PDT
Moon 7:14 PM PDT (8/19) 4:36 AM PDT (8/19)
Length of Visible Light 15h 15m
Length of Day
14h 07m
Waxing Gibbous, 98% of the Moon is Illuminated
Aug 19
Waxing Gibbous
Aug 20
Full
Aug 28
Last Quarter
Sep 5
New
Sep 12
First Quarter

Hourly Weather History & Observations

Time (PDT) Temp. Dew Point Humidity Pressure Visibility Wind Dir Wind Speed Gust Speed Precip Events Conditions
12:00 AM 55.4 °F 50.0 °F 82% 30.08 in 30.0 mi SE 2.3 mph - N/A   Scattered Clouds
1:00 AM 53.6 °F 50.0 °F 88% 30.07 in 30.0 mi Calm Calm - N/A   Mostly Cloudy
2:00 AM 53.6 °F 50.0 °F 88% 30.06 in 30.0 mi Calm Calm - N/A   Mostly Cloudy
3:00 AM 53.6 °F 50.0 °F 88% 30.06 in 30.0 mi SW 3.5 mph - N/A   Mostly Cloudy
4:00 AM 53.6 °F 50.0 °F 88% 30.06 in 30.0 mi SSE 2.3 mph - N/A   Mostly Cloudy
5:00 AM 55 °F 51 °F 84% 30.06 in 28 mi SSE 2.3 mph - -   Overcast
5:00 AM 55.4 °F 51.8 °F 88% 30.06 in 30.0 mi South 2.3 mph - N/A   Overcast
6:00 AM 57.2 °F 51.8 °F 82% 30.08 in 30.0 mi Calm Calm - N/A   Overcast
7:00 AM 57.2 °F 51.8 °F 82% 30.07 in 30.0 mi Calm Calm - N/A   Mostly Cloudy
8:00 AM 59.0 °F 53.6 °F 82% 30.08 in 30.0 mi SW 2.3 mph - N/A   Mostly Cloudy
8:28 AM 60.8 °F 53.6 °F 77% 30.08 in 30.0 mi South 2.3 mph - N/A Rain Light Rain
8:47 AM 59.0 °F 51.8 °F 77% 30.08 in 30.0 mi ESE 4.6 mph - N/A   Mostly Cloudy
9:00 AM 57.2 °F 51.8 °F 82% 30.09 in 30.0 mi ESE 4.6 mph - N/A   Mostly Cloudy
10:00 AM 62.6 °F 53.6 °F 72% 30.10 in 20.0 mi SE 4.6 mph - N/A   Mostly Cloudy
11:00 AM 63 °F 54 °F 64% 30.11 in 19 mi ESE 5.8 mph - -   Partly Cloudy
11:00 AM 62.6 °F 53.6 °F 72% 30.11 in 20.0 mi ESE 4.6 mph - N/A   Mostly Cloudy
12:00 PM 62.6 °F 53.6 °F 72% 30.12 in 20.0 mi East 5.8 mph - N/A   Mostly Cloudy
1:00 PM 62.6 °F 53.6 °F 72% 30.12 in 20.0 mi ESE 9.2 mph - N/A   Mostly Cloudy
2:00 PM 62.6 °F 53.6 °F 72% 30.11 in 20.0 mi ESE 11.5 mph - N/A   Mostly Cloudy
3:00 PM 68.0 °F 55.4 °F 64% 30.10 in 20.0 mi East 10.4 mph - N/A   Scattered Clouds
4:00 PM 69.8 °F 57.2 °F 64% 30.09 in 20.0 mi ESE 9.2 mph - N/A   Partly Cloudy
5:00 PM 71 °F 56 °F 50% 30.08 in 19 mi ENE 6.9 mph - -   Scattered Clouds
5:00 PM 71.6 °F 55.4 °F 57% 30.08 in 20.0 mi ENE 8.1 mph - N/A   Partly Cloudy
6:00 PM 64.4 °F 51.8 °F 64% 30.07 in 20.0 mi NE 11.5 mph - N/A   Partly Cloudy
7:00 PM 66.2 °F 51.8 °F 60% 30.07 in 20.0 mi NE 5.8 mph - N/A   Partly Cloudy
8:00 PM 66.2 °F 50.0 °F 56% 30.08 in 20.0 mi Variable 2.3 mph - N/A   Partly Cloudy
9:00 PM 59.0 °F 51.8 °F 77% 30.09 in 20.0 mi WSW 3.5 mph - N/A   Partly Cloudy
10:00 PM 60.8 °F 53.6 °F 77% 30.10 in 30.0 mi West 4.6 mph - N/A   Partly Cloudy
11:00 PM 63 °F 54 °F 65% 30.10 in 28 mi WNW 10.4 mph - -   Scattered Clouds
11:00 PM 62.6 °F 53.6 °F 72% 30.10 in 30.0 mi WNW 10.4 mph - N/A   Partly Cloudy